{"data":{"norad_id":26410,"intl_designator":"2000-041A","name":"CLUSTER II-FM7 (SAMBA)","alt_names":[],"object_type":"PAYLOAD","status":"ACTIVE","operator":null,"country":"ESA","launch_date":"2000-07-16","launch_site_code":"TYMSC","launch_vehicle":null,"mission":null,"orbit_class":"UNKNOWN","rcs_meters":1.9953,"size_class":null,"mass_kg":null,"dimensions":null,"purposes":["science"],"wikipedia_slug":null,"has_3d_model":false,"image_url":null,"decayed_at":null,"tle_current":{"epoch":"2026-05-25T19:50:48.086880Z","epoch_age_seconds":3057,"freshness":"FRESH","line1":"1 26410U 00041A   26145.82694545  .00003090  00000+0  00000+0 0  9999","line2":"2 26410 149.8709  46.8596 9027611 263.7467   0.1458  0.44828092 20212","mean_motion":0.44828092,"eccentricity":0.9027611,"inclination_deg":149.8709,"raan_deg":46.8596,"arg_perigee_deg":263.7467,"mean_anomaly_deg":0.1458,"bstar":0,"rev_number":2021,"period_min":3212.2714480018,"perigee_km":634.39800646271,"apogee_km":130842.44882199,"semimajor_km":72116.560414224,"source":"CELESTRAK","updated_at":"2026-05-25T13:38:24.635653Z"}}}